This demonstration page uses our WeatherBlox Daily Observations layout. Learn more.

Left ArrowRight Arrow

53.62937, 11.41316

Hourly Observations for January 26, 2018

Temp ( °F °C ) Dew Point ( °F °C ) Humidity (%) Winds ( mph kmh ) Pressure ( in mb ) Visibility ( mi km ) Precip ( " mm )
5:20 am 05:20 Mostly Cloudy with Light Rain 43 6 41 5 93 93 SW 3 6 29.94 1014 6 9 N/A
5:50 am 05:50 Mostly Cloudy with Light Rain 43 6 41 5 93 93 SW 2 4 29.94 1014 4 7 N/A
6:20 am 06:20 Cloudy 43 6 41 5 93 93 S 1 2 29.94 1014 4 6 N/A
6:50 am 06:50 Cloudy with Light Rain 41 5 41 5 100 100 VRB 1 2 29.94 1014 5 8 N/A
7:20 am 07:20 Mostly Cloudy 41 5 41 5 100 100 ESE 2 4 29.94 1014 5 8 N/A
7:50 am 07:50 Mostly Cloudy with Fog 37 3 37 3 100 100 E 1 2 29.97 1015 0 0 N/A
8:20 am 08:20 Cloudy with Fog 39 4 39 4 100 100 E 2 4 29.97 1015 0 0 N/A
8:50 am 08:50 Mostly Cloudy with Mist and Fog 39 4 39 4 100 100 ESE 1 2 29.97 1015 1 2 N/A
9:20 am 09:20 Partly Cloudy with Fog 37 3 37 3 100 100 VRB 1 2 29.97 1015 2 3 N/A
9:50 am 09:50 Mostly Cloudy with Mist and Fog 39 4 39 4 100 100 ESE 2 4 29.97 1015 2 4 N/A
10:20 am 10:20 Mostly Cloudy with Mist and Fog 41 5 41 5 100 100 VRB 1 2 30.00 1016 3 5 N/A
10:50 am 10:50 Cloudy 43 6 43 6 100 100 VRB 2 4 30.00 1016 30 48 N/A
11:20 am 11:20 Cloudy 43 6 43 6 100 100 WSW 3 6 30.03 1017 6 9 N/A
11:50 am 11:50 Cloudy 43 6 43 6 100 100 W 3 6 30.03 1017 5 8 N/A
12:20 pm 12:20 Cloudy 43 6 43 6 100 100 WSW 3 6 30.03 1017 4 7 N/A
12:50 pm 12:50 Cloudy 45 7 43 6 93 93 WSW 3 6 30.03 1017 4 6 N/A
1:20 pm 13:20 Cloudy 45 7 43 6 93 93 WSW 3 6 30.03 1017 4 6 N/A
1:50 pm 13:50 Cloudy with Drizzle 45 7 43 6 93 93 VRB 2 4 30.03 1017 4 7 N/A
2:20 pm 14:20 Cloudy 45 7 43 6 93 93 W 3 6 30.06 1018 4 7 N/A
2:50 pm 14:50 Cloudy 45 7 43 6 93 93 W 7 11 30.06 1018 4 6 N/A
3:20 pm 15:20 Cloudy with Mist and Fog 45 7 43 6 93 93 W 6 9 30.06 1018 2 4 N/A
3:50 pm 15:50 Cloudy with Mist and Fog 45 7 43 6 93 93 W 3 6 30.09 1019 2 4 N/A
4:20 pm 16:20 Cloudy with Mist and Fog 45 7 43 6 93 93 WNW 3 6 30.09 1019 2 4 N/A
5:20 pm 17:20 Cloudy with Mist and Fog 43 6 43 6 100 100 WNW 3 6 30.12 1020 1 2 N/A
5:50 pm 17:50 Cloudy with Mist and Fog 43 6 43 6 100 100 WNW 3 6 30.12 1020 2 3 N/A

Powered by AerisWeather